Szeged, Hungary

8:50 AM CEST on September 23, 2017 (GMT +0200)
Szeged

Weather History for LHUD - August, 2013

Change the Weather History Date:

Thursday, August 29, 2013

  Actual Average (LRAR) Record (LRAR)
Temperature  
Mean Temperature 68 °F -  
Max Temperature 77 °F 74 °F 96 °F (2003)
Min Temperature 60 °F 51 °F 47 °F (2012)
Cooling Degree Days 4    
Growing Degree Days 18 (Base 50)    
Moisture  
Dew Point 60 °F    
Average Humidity 79    
Maximum Humidity 100    
Minimum Humidity 43    
Precipitation  
Precipitation 0.02 in 0.05 in - ()
Sea Level Pressure  
Sea Level Pressure 30.01 in    
Wind  
Wind Speed 6 mph ()    
Max Wind Speed 12 mph    
Max Gust Speed -    
Visibility 5.2 miles    
Events Rain , Thunderstorm    
Averages and records for this station are not official NWS values.
T = Trace of Precipitation, MM = Missing Value Source: Averaged Metar Reports

Daily Weather History Graph

Daily Weather History Graph

Search for Another Location

Airport or City:

Trip Planner

Search our weather history database for the weather conditions in past years. The results will help you decide how hot, cold, wet, or windy it might be!

Date:

Astronomy

Aug. 29, 2013 Rise Set
Actual Time 5:56 AM CEST 7:23 PM CEST
Civil Twilight 5:24 AM CEST 7:55 PM CEST
Nautical Twilight 4:46 AM CEST 8:32 PM CEST
Astronomical Twilight 4:05 AM CEST 9:13 PM CEST
Moon No Moon Rise 2:47 PM CEST (8/29)
Length of Visible Light 14h 30m
Length of Day
13h 27m
Last Quarter, 40% of the Moon is Illuminated
Aug 29
Last Quarter
Sep 5
New
Sep 12
First Quarter
Sep 19
Full
Sep 27
Last Quarter

Hourly Weather History & Observations

Time (CEST) Temp. Dew Point Humidity Pressure Visibility Wind Dir Wind Speed Gust Speed Precip Events Conditions
12:45 AM 64.4 °F 64.4 °F 100% 29.92 in 6.2 mi SW 5.8 mph - N/A Thunderstorm Thunderstorm
1:45 AM 62.6 °F 62.6 °F 100% 29.95 in 3.1 mi WSW 5.8 mph - N/A Rain Light Rain Showers
1:53 AM 62.6 °F 62.6 °F 100% 29.95 in 5.0 mi West 6.9 mph - N/A Thunderstorm Thunderstorm
2:00 AM 63 °F 63 °F 100% 29.93 in 3 mi WSW 6.7 mph - - Rain Light Rain Showers
2:19 AM 62.6 °F 62.6 °F 100% 29.95 in 6.2 mi West 5.8 mph - N/A Rain , Thunderstorm Thunderstorms and Rain
2:45 AM 62.6 °F 62.6 °F 100% 29.95 in 4.3 mi WNW 4.6 mph - N/A Rain , Thunderstorm Thunderstorms and Rain
3:45 AM 62.6 °F 60.8 °F 94% 29.95 in 5.0 mi WNW 4.6 mph - N/A Rain Light Rain Showers
4:45 AM 60.8 °F 60.8 °F 100% 29.95 in 3.1 mi West 8.1 mph - N/A   Mostly Cloudy
5:45 AM 60.8 °F 60.8 °F 100% 29.95 in 2.5 mi NW 5.8 mph - N/A   Overcast
6:15 AM 60.8 °F 60.8 °F 100% 29.98 in 2.5 mi NW 4.6 mph - N/A   Overcast
6:45 AM 60.8 °F 60.8 °F 100% 29.98 in 2.5 mi WNW 4.6 mph - N/A   Overcast
7:15 AM 62.6 °F 62.6 °F 100% 29.98 in - WNW 4.6 mph - N/A   Mostly Cloudy
7:45 AM 62.6 °F 62.6 °F 100% 29.98 in 2.5 mi WNW 5.8 mph - N/A   Mostly Cloudy
8:00 AM 63 °F 63 °F 100% 29.97 in 2 mi WNW 6.7 mph - -   Mist
8:15 AM 62.6 °F 62.6 °F 100% 29.98 in 2.5 mi NW 5.8 mph - N/A   Mostly Cloudy
8:45 AM 64.4 °F 62.6 °F 94% 30.01 in 2.8 mi NW 4.6 mph - N/A   Mostly Cloudy
9:15 AM 64.4 °F 62.6 °F 94% 30.01 in 2.8 mi NW 5.8 mph - N/A   Overcast
9:45 AM 66.2 °F 62.6 °F 88% 30.01 in 3.1 mi NW 6.9 mph - N/A   Overcast
10:15 AM 66.2 °F 62.6 °F 88% 30.04 in 3.7 mi NW 9.2 mph - N/A   Scattered Clouds
10:45 AM 68.0 °F 62.6 °F 83% 30.04 in 5.0 mi WNW 8.1 mph - N/A   Scattered Clouds
11:01 AM 68.0 °F 62.6 °F 83% 30.04 in 5.0 mi WNW 9.2 mph - N/A Rain Light Rain Showers
11:15 AM 69.8 °F 60.8 °F 73% 30.04 in 5.0 mi WNW 6.9 mph - N/A   Scattered Clouds
11:45 AM 73.4 °F 59.0 °F 61% 30.04 in 6.2 mi North 11.5 mph - N/A   Scattered Clouds
12:15 PM 73.4 °F 59.0 °F 61% 30.04 in 6.2 mi NNW 11.5 mph - N/A   Scattered Clouds
12:45 PM 71.6 °F 59.0 °F 64% 30.04 in 6.2 mi NNW 11.5 mph - N/A   Scattered Clouds
1:45 PM 75.2 °F 57.2 °F 53% 30.04 in 6.2 mi NNW 6.9 mph - N/A   Scattered Clouds
2:00 PM 75 °F 57 °F 43% 30.02 in 9 mi NNW 6.7 mph - -   Partly Cloudy
2:15 PM 75.2 °F 57.2 °F 53% 30.04 in 6.2 mi NNW 8.1 mph - N/A   Scattered Clouds
2:45 PM 75.2 °F 55.4 °F 50% 30.04 in 6.2 mi NW 9.2 mph - N/A   Scattered Clouds
3:15 PM 77.0 °F 55.4 °F 47% 30.04 in 6.2 mi NNW 9.2 mph - N/A   Scattered Clouds
3:45 PM 75.2 °F 55.4 °F 50% 30.01 in 6.2 mi NNW 6.9 mph - N/A   Partly Cloudy
4:15 PM 73.4 °F 57.2 °F 57% 30.01 in 6.2 mi North 10.4 mph - N/A Rain Light Rain Showers
4:45 PM 75.2 °F 55.4 °F 50% 30.01 in 6.2 mi North 5.8 mph - N/A   Partly Cloudy
5:15 PM 73.4 °F 57.2 °F 57% 30.01 in 6.2 mi NE 8.1 mph - N/A   Partly Cloudy
5:45 PM 73.4 °F 57.2 °F 57% 30.01 in 6.2 mi NNE 10.4 mph - N/A   Partly Cloudy
6:15 PM 71.6 °F 57.2 °F 60% 30.04 in 6.2 mi NNE 8.1 mph - N/A   Partly Cloudy
6:45 PM 71.6 °F 55.4 °F 57% 30.04 in 6.2 mi NNE 4.6 mph - N/A   Partly Cloudy
7:15 PM 69.8 °F 57.2 °F 64% 30.04 in 6.2 mi NNE 5.8 mph - N/A   Scattered Clouds
7:20 PM 69.8 °F 59.0 °F 68% 30.04 in 6.2 mi NNE 4.6 mph - N/A Thunderstorm Thunderstorm
7:45 PM 68.0 °F 57.2 °F 68% 30.06 in 6.2 mi North 4.6 mph - N/A Rain Light Rain Showers
8:00 PM 69 °F 58 °F 59% 30.04 in 11 mi North 4.5 mph - - Rain Light Rain Showers
8:15 PM 64.4 °F 59.0 °F 83% 30.06 in 6.2 mi NNW 10.4 mph - N/A Rain Light Rain Showers
8:45 PM 64.4 °F 59.0 °F 83% 30.06 in 6.2 mi North 8.1 mph - N/A Rain Light Rain Showers
9:15 PM 64.4 °F 59.0 °F 83% 30.06 in 6.2 mi North 5.8 mph - N/A   Scattered Clouds
9:45 PM 62.6 °F 59.0 °F 88% 30.09 in 6.2 mi North 4.6 mph - N/A   Scattered Clouds
10:45 PM 62.6 °F 59.0 °F 88% 30.09 in 6.2 mi WNW 6.9 mph - N/A   Scattered Clouds
11:45 PM 60.8 °F 59.0 °F 94% 30.09 in - NNW 4.6 mph - N/A   Clear